Ypsilanti, MI

10:27 PM EST on December 10, 2016 (GMT -0500)
Willow Run

Weather History for KYIP - January, 2014

Change the Weather History Date:

Saturday, January 25, 2014

  Actual Average Record
Temperature  
Mean Temperature 19 °F -  
Max Temperature 30 °F 33 °F 69 °F (1950)
Min Temperature 8 °F 19 °F -11 °F (2004)
Degree Days  
Heating Degree Days 46    
Moisture  
Dew Point 13 °F    
Average Humidity 70    
Maximum Humidity 80    
Minimum Humidity 51    
Precipitation  
Precipitation 0.00 in - - ()
Sea Level Pressure  
Sea Level Pressure 29.44 in    
Wind  
Wind Speed 20 mph (West)    
Max Wind Speed 28 mph    
Max Gust Speed 37 mph    
Visibility 3 miles    
Events Snow    
Averages and records for this station are not official NWS values.
T = Trace of Precipitation, MM = Missing Value Source: NWS Daily Summary

Daily Weather History Graph

Daily Weather History Graph

Search for Another Location

Airport or City:

Trip Planner

Search our weather history database for the weather conditions in past years. The results will help you decide how hot, cold, wet, or windy it might be!

Date:

Astronomy

Jan. 25, 2014 Rise Set
Actual Time 7:53 AM EST 5:39 PM EST
Civil Twilight 7:23 AM EST 6:09 PM EST
Nautical Twilight 6:49 AM EST 6:43 PM EST
Astronomical Twilight 6:16 AM EST 7:16 PM EST
Moon 2:24 AM EST (1/25) 12:39 PM EST (1/25)
Length of Visible Light 10h 46m
Length of Day
9h 45m
Waning Crescent, 34% of the Moon is Illuminated
Jan 25
Waning Crescent
Jan 30
New
Feb 6
First Quarter
Feb 14
Full
Feb 22
Last Quarter

Hourly Weather History & Observations

Time (EST) Temp. Windchill Dew Point Humidity Pressure Visibility Wind Dir Wind Speed Gust Speed Precip Events Conditions
12:03 AM 19.4 °F 2.8 °F 12.2 °F 74% 29.54 in 2.0 mi SW 21.9 mph 31.1 mph 0.00 in Snow Light Snow
12:14 AM 19.4 °F 2.1 °F 12.2 °F 74% 29.53 in 2.5 mi SSW 24.2 mph 29.9 mph 0.00 in Snow Light Snow
12:25 AM 19.4 °F 3.2 °F 12.2 °F 74% 29.52 in 3.0 mi SW 20.7 mph 29.9 mph 0.00 in Snow Light Snow
12:29 AM 19.4 °F 2.1 °F 12.2 °F 74% 29.52 in 2.5 mi SSW 24.2 mph 29.9 mph 0.00 in Snow Light Snow
12:40 AM 19.4 °F 1.1 °F 12.2 °F 74% 29.50 in 1.8 mi SW 27.6 mph 36.8 mph 0.00 in Snow Light Snow
12:53 AM 19.9 °F 3.2 °F 12.9 °F 74% 29.53 in 1.5 mi SSW 23.0 mph 32.2 mph 0.00 in Snow Light Snow
1:25 AM 21.2 °F 4.9 °F 14.0 °F 74% 29.46 in 2.0 mi SW 23.0 mph 32.2 mph 0.00 in Snow Light Snow
1:34 AM 21.2 °F 4.2 °F 14.0 °F 74% 29.45 in 1.5 mi SSW 25.3 mph 34.5 mph 0.00 in Snow Light Snow
1:53 AM 21.0 °F 4.6 °F 14.0 °F 74% 29.47 in 1.8 mi SW 23.0 mph 32.2 mph 0.00 in Snow Light Snow
2:07 AM 21.2 °F 4.5 °F 15.8 °F 80% 29.43 in 2.0 mi SSW 24.2 mph 32.2 mph 0.00 in Snow Light Snow
2:16 AM 21.2 °F 3.9 °F 15.8 °F 80% 29.43 in 1.8 mi SSW 26.5 mph 33.4 mph 0.00 in Snow Light Snow
2:34 AM 21.2 °F 3.9 °F 15.8 °F 80% 29.41 in 2.5 mi SSW 26.5 mph 33.4 mph 0.00 in Snow Light Snow
2:53 AM 21.9 °F 4.8 °F 15.1 °F 75% 29.43 in 2.0 mi SSW 26.5 mph 34.5 mph 0.00 in Snow Light Snow
3:02 AM 21.2 °F 4.2 °F 15.8 °F 80% 29.40 in 1.8 mi SW 25.3 mph 34.5 mph 0.00 in Snow Light Snow
3:18 AM 21.2 °F 4.9 °F 15.8 °F 80% 29.39 in 2.0 mi SW 23.0 mph 32.2 mph 0.00 in Snow Light Snow
3:39 AM 21.2 °F 4.5 °F 15.8 °F 80% 29.38 in 3.0 mi SSW 24.2 mph 31.1 mph 0.00 in Snow Light Snow
3:53 AM 23.0 °F 7.2 °F 16.0 °F 74% 29.40 in 4.0 mi SW 23.0 mph 28.8 mph 0.00 in Snow Light Snow
4:09 AM 23.0 °F 7.6 °F 15.8 °F 74% 29.37 in 4.0 mi SW 21.9 mph 29.9 mph 0.00 in Snow Light Snow
4:51 AM 23.0 °F 8.0 °F 17.6 °F 80% 29.35 in 2.0 mi SW 20.7 mph 28.8 mph 0.00 in Snow Light Snow
4:53 AM 23.0 °F 8.3 °F 17.1 °F 78% 29.37 in 2.5 mi SSW 19.6 mph 28.8 mph 0.00 in Snow Light Snow
5:05 AM 23.0 °F 7.6 °F 17.6 °F 80% 29.34 in 3.0 mi SSW 21.9 mph 28.8 mph 0.00 in Snow Light Snow
5:10 AM 23.0 °F 8.0 °F 17.6 °F 80% 29.34 in 2.5 mi SW 20.7 mph - 0.00 in Snow Light Snow
5:20 AM 23.0 °F 8.3 °F 17.6 °F 80% 29.33 in 1.2 mi SW 19.6 mph 28.8 mph 0.00 in Snow Light Snow
5:36 AM 24.8 °F 10.0 °F 17.6 °F 74% 29.32 in 2.5 mi SSW 21.9 mph 28.8 mph 0.00 in Snow Light Snow
5:45 AM 24.8 °F 10.0 °F 17.6 °F 74% 29.32 in 2.5 mi SW 21.9 mph 28.8 mph 0.00 in Snow Light Snow
5:53 AM 24.1 °F 9.8 °F 17.1 °F 75% 29.34 in 3.0 mi SW 19.6 mph - 0.00 in Snow Light Snow
6:01 AM 24.8 °F 10.7 °F 17.6 °F 74% 29.31 in 2.0 mi SW 19.6 mph 27.6 mph 0.00 in Snow Light Snow
6:09 AM 24.8 °F 11.1 °F 17.6 °F 74% 29.31 in 1.8 mi SSW 18.4 mph 28.8 mph 0.00 in Snow Light Snow
6:20 AM 24.8 °F 10.7 °F 17.6 °F 74% 29.31 in 1.2 mi SW 19.6 mph 26.5 mph 0.00 in Snow Light Snow
6:53 AM 24.1 °F 9.8 °F 18.0 °F 77% 29.33 in 1.2 mi SW 19.6 mph 26.5 mph 0.00 in Snow Light Snow
7:08 AM 24.8 °F 11.5 °F 17.6 °F 74% 29.30 in 2.5 mi SW 17.3 mph - 0.00 in Snow Light Snow
7:21 AM 24.8 °F 11.9 °F 19.4 °F 80% 29.31 in 1.5 mi SW 16.1 mph - 0.00 in Snow Light Snow
7:53 AM 25.0 °F 12.6 °F 19.0 °F 78% 29.33 in 2.0 mi SW 15.0 mph - 0.00 in Snow Light Snow
8:03 AM 24.8 °F 12.4 °F 19.4 °F 80% 29.31 in 2.0 mi SW 15.0 mph - 0.00 in Snow Light Snow
8:16 AM 24.8 °F 13.4 °F 19.4 °F 80% 29.31 in 1.5 mi SW 12.7 mph - 0.00 in Snow Light Snow
8:26 AM 24.8 °F 13.4 °F 19.4 °F 80% 29.31 in 3.0 mi SW 12.7 mph - 0.00 in Snow Light Snow
8:35 AM 24.8 °F 13.4 °F 19.4 °F 80% 29.31 in 1.8 mi SW 12.7 mph - 0.00 in Snow Light Snow
8:49 AM 26.6 °F 16.2 °F 19.4 °F 74% 29.31 in 3.0 mi SW 11.5 mph - 0.00 in Snow Light Snow
8:53 AM 26.1 °F 15.0 °F 19.9 °F 78% 29.33 in 4.0 mi SW 12.7 mph - 0.00 in Snow Light Snow
9:43 AM 26.6 °F 15.7 °F 21.2 °F 80% 29.30 in 10.0 mi SSW 12.7 mph - 0.00 in   Mostly Cloudy
9:53 AM 27.0 °F 16.7 °F 21.0 °F 78% 29.32 in 10.0 mi SW 11.5 mph - 0.00 in   Mostly Cloudy
10:38 AM 28.4 °F 18.0 °F 21.2 °F 74% 29.30 in 2.5 mi West 12.7 mph - 0.00 in Snow Light Snow
10:51 AM 30.2 °F 19.8 °F 21.2 °F 69% 29.31 in 5.0 mi West 13.8 mph 20.7 mph 0.00 in Snow Light Snow
10:53 AM 30.0 °F 19.1 °F 21.0 °F 69% 29.33 in 6.0 mi WSW 15.0 mph - 0.00 in Snow Light Snow
11:07 AM 26.6 °F 13.1 °F 17.6 °F 69% 29.32 in 2.5 mi NNW 19.6 mph 23.0 mph 0.00 in Snow Light Snow
11:09 AM 24.8 °F 11.1 °F 17.6 °F 74% 29.33 in 1.8 mi North 18.4 mph 23.0 mph 0.00 in Snow Light Snow
11:11 AM 24.8 °F 11.5 °F 17.6 °F 74% 29.33 in 1.0 mi North 17.3 mph 23.0 mph 0.00 in Snow Light Snow
11:53 AM 27.0 °F 16.7 °F 18.0 °F 69% 29.36 in 1.0 mi NW 11.5 mph - 0.00 in Snow Light Snow
11:57 AM 26.6 °F 13.8 °F 15.8 °F 64% 29.34 in 6.0 mi NNW 17.3 mph - 0.00 in Snow Light Snow
12:18 PM 26.6 °F 13.1 °F 17.6 °F 69% 29.35 in 0.8 mi NW 19.6 mph 24.2 mph 0.00 in Snow Light Snow
12:23 PM 26.6 °F 13.1 °F 17.6 °F 69% 29.35 in 1.2 mi NW 19.6 mph - 0.00 in Snow Light Snow
12:30 PM 26.6 °F 13.8 °F 17.6 °F 69% 29.35 in 2.0 mi NW 17.3 mph - 0.00 in Snow Light Snow
12:40 PM 26.6 °F 12.4 °F 17.6 °F 69% 29.35 in 1.5 mi NW 21.9 mph 27.6 mph 0.00 in Snow Light Snow
12:48 PM 24.8 °F 9.6 °F 15.8 °F 69% 29.36 in 0.5 mi NW 23.0 mph 33.4 mph 0.00 in Snow Snow
12:53 PM 25.0 °F 9.9 °F 16.0 °F 69% 29.38 in 0.5 mi NW 23.0 mph 33.4 mph 0.00 in Snow Snow
1:09 PM 24.8 °F 10.3 °F 15.8 °F 69% 29.37 in 1.0 mi NW 20.7 mph 25.3 mph 0.00 in Snow Light Snow
1:18 PM 24.8 °F 10.0 °F 15.8 °F 69% 29.38 in 0.5 mi NNW 21.9 mph 34.5 mph 0.00 in Snow Snow
1:34 PM 23.0 °F 8.3 °F 12.2 °F 63% 29.39 in 1.5 mi NW 19.6 mph - 0.00 in Snow Light Snow
1:38 PM 23.0 °F 8.7 °F 12.2 °F 63% 29.39 in 3.0 mi NW 18.4 mph - 0.00 in Snow Light Snow
1:53 PM 24.1 °F 12.0 °F 10.0 °F 55% 29.42 in 10.0 mi NNW 13.8 mph - 0.00 in   Overcast
2:53 PM 21.9 °F 8.2 °F 7.0 °F 53% 29.45 in 8.0 mi NW 16.1 mph 24.2 mph N/A   Overcast
3:02 PM 21.2 °F 5.6 °F 8.6 °F 58% 29.44 in 1.5 mi NNW 20.7 mph 27.6 mph 0.00 in Snow Light Snow
3:10 PM 19.4 °F 4.5 °F 12.2 °F 74% 29.45 in 0.5 mi NW 17.3 mph 27.6 mph 0.00 in Snow Snow
3:26 PM 19.4 °F 3.6 °F 8.6 °F 63% 29.46 in 1.5 mi NW 19.6 mph 28.8 mph 0.00 in Snow Light Snow
3:34 PM 19.4 °F 4.5 °F 8.6 °F 63% 29.47 in 1.8 mi NW 17.3 mph 26.5 mph 0.00 in Snow Light Snow
3:38 PM 19.4 °F 5.5 °F 8.6 °F 63% 29.48 in 3.0 mi NW 15.0 mph - 0.00 in Snow Light Snow
3:53 PM 19.9 °F 3.5 °F 6.1 °F 55% 29.50 in 5.0 mi WNW 21.9 mph 26.5 mph 0.00 in   Overcast
4:06 PM 19.4 °F 2.5 °F 6.8 °F 58% 29.49 in 1.5 mi NW 23.0 mph 27.6 mph 0.00 in Snow Light Snow
4:15 PM 19.4 °F 4.1 °F 8.6 °F 63% 29.50 in 0.8 mi WNW 18.4 mph 31.1 mph 0.00 in Snow Light Snow
4:18 PM 19.4 °F 4.5 °F 8.6 °F 63% 29.50 in 1.2 mi WNW 17.3 mph - 0.00 in Snow Light Snow
4:21 PM 19.4 °F 4.5 °F 6.8 °F 58% 29.50 in 4.0 mi WNW 17.3 mph - 0.00 in Snow Light Snow
4:37 PM 19.4 °F 3.2 °F 6.8 °F 58% 29.52 in 2.5 mi WNW 20.7 mph 25.3 mph 0.00 in Snow Light Snow
4:42 PM 17.6 °F 1.3 °F 6.8 °F 63% 29.53 in 1.8 mi WNW 19.6 mph - 0.00 in Snow Light Snow
4:48 PM 17.6 °F 2.7 °F 6.8 °F 63% 29.53 in 3.0 mi NW 16.1 mph 25.3 mph 0.00 in Snow Light Snow
4:53 PM 18.0 °F 2.2 °F 6.1 °F 60% 29.56 in 7.0 mi WNW 18.4 mph 26.5 mph 0.00 in   Overcast
5:17 PM 17.6 °F 1.7 °F 6.8 °F 63% 29.56 in 1.5 mi WNW 18.4 mph - 0.00 in Snow Light Snow
5:26 PM 17.6 °F 2.7 °F 8.6 °F 68% 29.56 in 0.5 mi WNW 16.1 mph - 0.00 in Snow Snow
5:42 PM 17.6 °F 2.7 °F 6.8 °F 63% 29.58 in 1.0 mi NW 16.1 mph 21.9 mph 0.00 in Snow Light Snow
5:53 PM 16.0 °F -0.4 °F 8.1 °F 71% 29.61 in 1.8 mi NW 18.4 mph 27.6 mph 0.00 in Snow Light Snow
5:57 PM 15.8 °F -0.2 °F 6.8 °F 68% 29.59 in 2.0 mi WNW 17.3 mph 27.6 mph 0.00 in Snow Light Snow
6:01 PM 15.8 °F -3.4 °F 5.0 °F 62% 29.59 in 1.0 mi WNW 26.5 mph 33.4 mph 0.00 in Snow Light Snow
6:07 PM 14.0 °F -5.8 °F 5.0 °F 67% 29.60 in 0.5 mi WNW 26.5 mph 33.4 mph 0.00 in Snow Snow
6:18 PM 15.8 °F -2.3 °F 1.4 °F 53% 29.61 in 2.0 mi WNW 23.0 mph 29.9 mph 0.00 in   Mostly Cloudy
6:27 PM 15.8 °F -1.5 °F 1.4 °F 53% 29.62 in 3.0 mi WNW 20.7 mph 31.1 mph 0.00 in   Mostly Cloudy
6:53 PM 14.0 °F 1.2 °F -0.0 °F 54% 29.67 in 10.0 mi NW 10.4 mph - 0.00 in   Partly Cloudy
7:53 PM 12.9 °F -2.2 °F -2.0 °F 51% 29.71 in 10.0 mi WNW 13.8 mph - N/A   Overcast
8:53 PM 12.0 °F -2.7 °F -2.0 °F 53% 29.75 in 10.0 mi WNW 12.7 mph - N/A   Overcast
9:53 PM 9.0 °F -3.2 °F -2.0 °F 61% 29.77 in 10.0 mi WNW 8.1 mph - N/A   Partly Cloudy
10:53 PM 8.1 °F -3.2 °F -2.0 °F 64% 29.80 in 10.0 mi WNW 6.9 mph - N/A   Mostly Cloudy
11:53 PM 9.0 °F 0.6 °F -0.9 °F 64% 29.81 in 10.0 mi West 4.6 mph - N/A   Overcast